Location: Kyle
(50.8323°N, 108.0393°W)
Time: 08:14:31
(UTC+00:00)

X-37B - Visible Passes

Search period start: 29 January 2022 00:00
Search period end: 08 February 2022 00:00
Orbit: 331 x 339 km, 45.0° (Epoch: 27 January)

Date Brightness Start Highest point End Pass type
(mag) Time Alt. Az. Time Alt. Az. Time Alt. Az.
29 Jan 2.7 01:34:15 10° S 01:35:35 13° SSE 01:35:45 13° SSE visible
30 Jan 2.4 01:53:37 10° SW 01:55:23 19° S 01:55:23 19° S visible
31 Jan 2.9 00:39:43 10° S 00:41:03 13° SSE 00:42:22 10° SE visible
31 Jan 2.6 02:13:35 10° SW 02:15:01 20° SSW 02:15:01 20° SSW visible
01 Feb 2.4 00:59:04 10° SW 01:01:11 19° SSE 01:03:17 10° ESE visible
01 Feb 3.2 02:33:47 10° WSW 02:34:37 16° SW 02:34:37 16° SW visible
02 Feb 2.1 01:19:01 10° SW 01:21:23 24° S 01:23:00 15° SE visible
02 Feb 3.8 02:54:11 10° WSW 02:54:13 10° WSW 02:54:13 10° WSW visible
03 Feb 2.1 01:39:14 10° WSW 01:41:37 24° S 01:42:38 20° SSE visible
04 Feb 2.3 01:59:38 10° WSW 02:01:49 20° SSW 02:02:18 19° S visible
05 Feb 2.2 00:44:41 10° WSW 00:47:04 24° S 00:49:26 10° SE visible
05 Feb 3.0 02:20:25 10° SW 02:21:58 14° SSW 02:22:02 14° SSW visible
06 Feb 2.6 01:05:05 10° WSW 01:07:17 20° SSW 01:09:28 10° SE visible
07 Feb 3.1 01:25:50 10° SW 01:27:25 14° SSW 01:29:00 10° SSE visible
